User: anonymous   Login
Location: St. Louis
(38.6270°N, 90.1994°W)
Time: 23:23:24
(UTC-06:00)
Language:

Max Valier Satellite - Orbit

View from above orbital plane
View from above orbital plane
View from above satellite
View from above satellite

Ground track
Ground track

The orbit data is extracted from the following two-line orbital elements,

1 42778U 17036P   22026.39974043  .00003728  00000-0  15294-3 0  9990
2 42778  97.2280  72.4595 0013175 107.3523 252.9158 15.24755829255246
Epoch (UTC): 26 January 2022 09:35:37
Eccentricity: 0.0013175
inclination: 97.2280°
perigee height: 482 km
apogee height: 500 km
right ascension of ascending node: 72.4595°
argument of perigee: 107.3523°
revolutions per day: 15.24755829
mean anomaly at epoch: 252.9158°
orbit number at epoch: 25524

The dashed part of the orbit path shows where the satellite is in the earth's shadow,  

DLR